Wetbulb
72.41 72.15 71.65 71.91 71.81 72.51 72.87 72.63 72.31 72.73 71.41 71.51 70.82 69.94 71.23 71.27 71.16 70.79 71.29 75.88 76.37 76.78 76.30 75.92 76.34 76.94 76.59 76.75 76.28 76.41 76.23 76.12 76.15 76.38 76.32 76.34 75.97 76.42 76.11 75.10 74.91 74.63 74.64
71.64 71.95 72.16 71.93 72.58 72.46 72.39 73.19 72.14 71.25 71.41 71.71 71.19 70.92 70.92 71.77 71.77 71.38 71.52 72.42 76.02 76.28 76.33 76.46 76.59 76.38 76.38 76.45 76.70 76.30 76.25 76.54 76.29 76.46 76.61 76.17 76.43 76.23 75.73 74.96 74.79 74.62 74.17
71.48 71.97 72.36 71.60 72.81 73.67 73.06 73.09 72.26 72.33 71.93 72.71 71.66 71.06 71.08 71.06 71.49 70.92 70.67 70.32 73.35 76.35 76.28 75.62 76.52 76.61 77.04 76.14 76.10 76.67 76.40 76.72 76.79 76.79 76.78 76.46 76.61 76.43 75.72 75.36 74.87 74.47 74.18
73.39 72.29 72.48 71.92 72.71 73.85 72.51 72.75 71.85 71.10 70.69 71.48 70.96 71.09 71.22 71.08 71.37 70.59 72.02 71.02 70.91 72.92 75.16 75.57 75.93 76.43 76.49 76.20 76.10 76.46 76.24 76.48 76.27 76.61 76.31 76.08 76.00 75.98 75.62 75.22 75.38 75.43 74.27
73.41 72.70 72.03 72.22 72.94 72.81 72.11 71.63 71.44 71.21 70.29 70.76 71.21 71.37 71.23 70.35 71.40 71.55 71.32 70.73 70.63 71.48 71.58 74.86 75.10 75.67 75.94 75.84 75.94 76.15 76.18 76.04 76.56 76.63 76.51 75.89 76.31 76.06 75.76 75.43 75.99 75.69 75.13
74.46 73.02 72.60 72.60 72.53 71.36 71.73 72.07 70.94 70.88 70.16 70.99 71.90 71.39 71.25 70.87 71.52 70.38 71.15 71.18 70.50 69.87 70.00 69.91 71.81 72.72 75.87 76.35 76.78 76.75 76.35 75.98 76.63 76.13 76.16 76.06 76.09 75.81 75.69 75.51 75.18 75.38 75.06
74.38 73.02 72.82 72.66 72.81 70.97 71.84 71.38 71.28 70.35 69.95 71.44 69.54 69.38 70.17 70.87 71.36 70.47 70.96 71.18 69.98 69.79 69.21 69.12 70.20 70.03 70.92 76.11 76.30 76.61 76.50 75.90 75.85 76.15 76.39 75.84 75.71 75.78 75.48 75.20 75.18 75.23 75.21
73.92 73.42 72.66 73.03 72.94 72.04 71.92 70.62 70.61 69.95 68.89 70.97 67.92 67.40 64.66 66.95 69.99 70.87 70.16 69.79 70.36 70.48 69.74 70.11 69.65 68.71 68.36 72.62 73.64 76.30 76.83 76.53 75.45 75.56 76.64 76.26 75.88 75.68 75.52 75.09 74.84 74.89 74.75
74.41 73.43 73.45 73.69 72.89 72.66 71.79 72.12 70.29 69.14 68.66 70.18 69.65 67.76 64.48 63.49 66.47 68.84 68.85 69.66 69.88 70.41 70.30 69.90 69.58 68.42 68.10 69.83 73.31 75.98 76.29 75.81 76.73 76.09 76.47 76.71 76.13 75.95 75.75 75.37 74.93 74.78 75.18
73.10 74.18 73.00 73.39 72.62 71.79 70.65 71.76 71.37 69.81 70.26 68.34 69.36 70.33 69.99 68.41 64.18 63.68 68.03 68.97 70.57 70.42 70.19 69.56 70.03 69.13 69.03 69.51 71.62 74.53 75.21 74.82 75.99 77.14 77.18 76.74 76.66 76.13 76.08 76.17 75.63 74.83 74.58
73.33 73.96 73.04 72.12 72.01 72.31 71.35 70.58 71.14 71.17 70.96 69.02 68.46 68.23 69.02 69.38 68.71 66.51 63.67 66.81 69.27 70.62 70.82 70.67 70.19 70.51 70.11 69.83 69.46 71.48 74.58 74.85 75.15 76.06 76.46 76.61 76.71 76.11 75.70 75.48 75.81 75.79 75.44
72.67 72.42 73.11 72.33 72.47 72.29 70.78 71.78 71.41 71.33 71.41 71.43 70.65 69.83 68.75 68.23 67.48 67.42 65.07 66.75 67.11 68.84 70.99 71.17 70.53 70.71 71.22 71.33 71.76 72.44 74.36 74.52 74.27 74.79 74.93 75.68 76.16 76.16 75.15 75.06 75.27 75.35 75.38
71.56 71.91 71.92 71.75 71.52 70.99 70.21 69.03 68.41 69.35 71.41 71.47 71.03 70.13 70.89 70.15 70.15 68.95 67.62 65.92 66.36 68.07 69.20 70.97 71.33 71.02 71.41 71.41 72.03 73.20 74.29 73.75 73.38 73.18 73.47 74.23 74.89 75.33 75.58 75.42 75.38 75.00 74.51
71.43 71.76 71.95 70.84 70.03 70.37 70.54 70.09 70.51 71.46 72.19 72.30 70.92 71.20 70.74 71.00 71.52 70.94 68.37 66.72 65.15 67.01 68.05 67.83 71.58 71.67 71.39 71.49 72.10 73.99 71.79 72.46 72.25 71.89 72.28 72.88 73.29 73.83 74.42 75.04 75.03 75.26 75.73
72.42 71.59 71.56 70.80 70.37 70.68 70.96 70.32 70.42 71.08 71.52 71.61 71.81 71.02 70.96 71.61 72.16 71.73 70.49 68.62 67.24 64.39 65.67 67.98 68.20 71.91 72.16 72.70 72.75 72.21 72.23 72.23 71.70 71.28 71.01 71.21 71.97 72.45 72.53 73.21 73.84 73.81 74.31
72.99 71.59 71.71 71.46 71.20 71.17 71.04 70.73 71.20 71.75 71.61 72.04 72.10 71.53 71.71 71.98 71.87 71.63 71.17 70.13 68.26 67.26 65.21 68.86 70.26 70.69 72.04 72.84 73.08 72.55 72.22 72.09 71.23 70.70 70.24 70.00 70.43 71.34 71.75 71.93 72.17 72.11 72.12
73.43 72.78 72.39 71.70 71.45 71.25 71.53 71.16 71.47 71.29 71.29 71.52 71.67 71.29 71.53 71.16 70.94 71.05 71.38 70.85 69.23 67.58 65.65 68.66 70.35 71.35 70.88 71.09 72.11 71.64 72.65 72.00 71.41 69.99 69.63 69.19 69.13 69.89 70.29 70.56 70.50 70.37 70.33
73.28 72.95 72.92 71.88 71.43 72.08 72.08 71.79 71.75 71.73 70.98 70.20 70.85 70.82 70.90 72.50 70.75 71.66 71.36 70.13 70.40 69.88 68.71 66.59 69.22 69.54 70.28 70.77 70.80 71.11 71.44 72.63 70.66 70.45 69.12 68.41 68.08 68.26 68.64 68.73 68.65 68.47 68.02
73.07 73.12 72.78 72.30 72.40 72.41 72.48 72.46 72.48 72.39 71.84 71.37 71.21 70.63 70.75 70.60 70.71 70.96 71.12 69.77 70.31 69.77 69.59 68.34 66.38 69.25 69.52 70.01 70.25 72.38 70.64 71.05 70.88 70.36 68.30 67.72 67.70 67.70 67.53 67.09 66.62 65.82 65.68
72.54 72.15 72.86 72.50 72.88 72.95 72.84 72.91 72.84 71.82 71.32 70.68 70.55 70.70 70.75 70.84 70.05 70.60 69.97 67.49 67.69 67.42 68.44 65.78 66.09 67.26 67.76 68.84 69.97 69.90 69.19 70.95 71.48 72.68 71.07 68.98 68.48 67.86 67.17 65.70 65.53 65.42 64.59
72.36 72.63 72.86 72.98 73.08 73.14 73.36 72.93 72.79 71.52 69.92 68.56 68.88 69.23 70.29 70.51 70.13 69.77 70.29 68.14 65.65 65.89 66.97 67.76 67.30 67.76 68.46 68.98 68.21 70.14 68.48 69.79 70.15 71.05 70.06 68.99 68.25 67.82 67.58 66.37 67.63 67.28 64.94
72.25 73.33 72.89 72.59 72.69 74.02 71.07 70.27 72.05 70.45 69.22 68.28 67.27 66.86 69.41 69.25 68.48 68.26 68.82 68.91 68.68 67.29 66.25 66.90 67.24 66.49 67.78 69.09 69.90 69.81 69.07 67.35 66.90 72.30 70.17 69.68 69.68 68.71 69.52 68.77 67.98 67.06 65.49
72.98 72.86 72.56 73.26 72.81 72.33 69.27 67.69 71.47 69.65 68.46 68.12 67.54 66.79 67.58 69.22 67.78 67.65 67.42 67.74 67.81 67.96 68.78 68.75 67.62 68.21 68.17 69.56 70.03 69.08 69.21 68.77 68.17 70.69 70.51 68.48 71.55 69.41 69.52 69.95 66.48 65.98 64.33
72.66 72.54 72.40 72.79 72.51 72.32 67.42 66.93 70.73 69.85 69.08 68.63 68.30 67.27 66.04 65.06 66.00 65.65 65.31 65.58 66.89 67.45 67.45 68.49 68.84 69.85 69.97 69.90 71.11 70.38 69.93 69.77 70.16 70.97 71.06 67.31 69.90 68.30 67.10 65.64 65.11 63.70 61.97
73.14 72.51 72.48 72.58 72.09 70.57 64.82 65.90 68.15 69.38 70.21 69.62 69.59 68.89 68.00 66.39 65.03 64.90 65.08 64.12 65.09 67.74 66.46 65.90 68.14 67.04 65.92 66.80 68.52 70.58 69.16 68.39 67.10 67.85 70.71 69.07 69.38 66.40 65.19 64.01 62.91 62.18 60.34
73.00 72.12 71.87 71.86 70.04 69.25 63.02 63.33 66.35 69.16 68.84 70.47 70.59 70.03 66.99 67.55 63.19 62.55 65.49 64.77 63.91 64.27 66.40 63.77 63.90 64.61 65.22 65.71 66.04 69.24 70.26 68.23 67.62 66.51 69.31 68.01 68.59 67.22 64.28 63.97 62.62 60.23 59.00
MSLP
1016.45 1016.71 1017.10 1017.31 1017.53 1017.73 1018.03 1018.40 1018.76 1019.04 1019.20 1019.08 1019.45 1020.30 1020.58 1020.75 1021.00 1020.92 1020.61 1020.75 1021.16 1021.42 1021.79 1022.09 1022.26 1022.20 1022.07 1022.35 1022.82 1023.04 1023.25 1023.67 1024.00 1024.18 1024.38 1024.56 1024.76 1025.02 1025.23 1025.47 1025.64 1025.75 1025.84
1015.97 1016.39 1016.60 1016.91 1017.22 1017.19 1017.49 1017.63 1018.33 1018.91 1019.07 1019.31 1019.48 1019.94 1020.23 1020.63 1020.69 1020.67 1020.64 1020.77 1021.09 1021.23 1021.53 1021.98 1022.05 1022.10 1022.12 1022.33 1022.82 1023.11 1023.38 1023.69 1024.07 1024.26 1024.46 1024.67 1024.86 1025.11 1025.35 1025.63 1025.83 1025.94 1026.07
1015.78 1016.06 1016.38 1016.71 1017.08 1017.04 1017.20 1017.80 1018.24 1018.57 1018.93 1019.09 1019.37 1019.60 1019.82 1020.20 1020.36 1020.57 1020.62 1020.88 1020.88 1021.04 1021.39 1021.80 1021.95 1021.93 1022.03 1022.45 1022.69 1022.99 1023.52 1023.82 1024.09 1024.28 1024.50 1024.79 1024.95 1025.17 1025.42 1025.68 1025.88 1026.03 1026.17
1015.30 1015.91 1016.36 1016.72 1016.73 1017.08 1017.41 1017.76 1018.40 1018.85 1019.15 1019.25 1019.42 1019.46 1019.65 1020.03 1020.13 1020.38 1020.45 1020.62 1020.87 1020.99 1021.19 1021.50 1021.85 1021.99 1022.09 1022.31 1022.73 1022.93 1023.45 1023.84 1024.07 1024.28 1024.52 1024.78 1025.04 1025.24 1025.45 1025.70 1025.88 1026.09 1026.24
1014.93 1015.50 1015.93 1016.25 1016.46 1016.78 1017.21 1017.79 1018.22 1018.51 1019.01 1019.31 1019.42 1019.45 1019.58 1019.82 1019.84 1020.09 1020.23 1020.31 1020.67 1020.82 1021.04 1021.25 1021.64 1021.86 1022.01 1022.24 1022.57 1022.84 1023.36 1023.72 1024.02 1024.22 1024.48 1024.69 1025.03 1025.30 1025.50 1025.69 1025.83 1026.03 1026.22
1014.78 1015.18 1015.56 1015.87 1016.36 1016.93 1017.29 1017.48 1018.00 1018.61 1018.74 1018.97 1019.09 1019.30 1019.28 1019.40 1019.54 1019.96 1020.05 1020.33 1020.68 1020.86 1020.84 1021.15 1021.53 1021.70 1021.79 1021.93 1022.26 1022.64 1023.05 1023.51 1023.86 1024.14 1024.37 1024.63 1024.89 1025.19 1025.46 1025.64 1025.78 1025.96 1026.10
1014.59 1015.04 1015.40 1015.70 1016.18 1016.71 1017.00 1017.59 1018.04 1018.42 1018.64 1018.67 1019.17 1019.42 1019.37 1019.39 1019.35 1019.70 1019.70 1019.97 1020.25 1020.39 1020.64 1020.86 1021.15 1021.54 1021.73 1021.76 1021.97 1022.27 1022.66 1023.07 1023.49 1023.84 1024.19 1024.52 1024.78 1025.06 1025.33 1025.54 1025.71 1025.85 1025.97
1014.09 1014.73 1015.20 1015.54 1016.07 1016.62 1017.03 1017.49 1017.75 1018.21 1018.44 1018.48 1018.78 1019.12 1019.30 1019.36 1019.20 1019.23 1019.61 1019.76 1019.86 1019.91 1020.09 1020.45 1020.67 1020.99 1021.28 1021.57 1021.70 1021.92 1022.33 1022.67 1023.07 1023.48 1023.88 1024.29 1024.60 1024.83 1025.10 1025.33 1025.54 1025.74 1025.88
1013.73 1014.24 1014.66 1015.06 1015.70 1016.10 1016.50 1016.90 1017.26 1017.60 1017.93 1018.29 1018.24 1018.20 1018.71 1018.85 1018.89 1018.94 1019.09 1019.25 1019.49 1019.69 1019.63 1019.74 1020.06 1020.29 1020.65 1021.01 1021.35 1021.67 1021.97 1022.28 1022.62 1023.05 1023.46 1023.90 1024.27 1024.58 1024.85 1025.07 1025.33 1025.53 1025.67
1013.54 1013.88 1014.29 1014.66 1015.27 1015.73 1016.12 1016.43 1016.86 1017.15 1017.42 1017.72 1018.19 1017.95 1017.99 1018.21 1018.67 1018.81 1018.82 1018.87 1019.01 1019.19 1019.36 1019.42 1019.42 1019.67 1020.05 1020.47 1020.79 1021.16 1021.51 1021.96 1022.23 1022.55 1022.94 1023.35 1023.76 1024.11 1024.41 1024.67 1024.99 1025.23 1025.40
1013.29 1013.65 1014.12 1014.57 1015.12 1015.53 1015.83 1016.06 1016.40 1016.63 1016.81 1017.06 1017.28 1017.68 1017.98 1018.06 1018.33 1018.73 1018.59 1018.47 1018.64 1018.55 1018.58 1018.64 1018.92 1019.16 1019.39 1019.80 1020.20 1020.50 1020.84 1021.27 1021.72 1022.06 1022.46 1022.86 1023.22 1023.54 1023.92 1024.20 1024.47 1024.75 1024.99
1013.11 1013.39 1013.62 1014.16 1014.56 1015.19 1015.44 1015.49 1015.75 1015.99 1016.14 1016.16 1016.44 1016.86 1017.12 1017.42 1017.42 1017.91 1018.16 1017.90 1017.78 1017.88 1018.07 1018.20 1018.37 1018.60 1018.76 1019.07 1019.35 1019.73 1020.18 1020.59 1021.04 1021.51 1021.93 1022.30 1022.71 1023.10 1023.38 1023.65 1023.90 1024.16 1024.39
1012.98 1013.18 1013.40 1013.84 1014.20 1014.61 1014.94 1015.25 1015.40 1015.59 1015.74 1015.81 1015.77 1016.22 1016.35 1016.53 1016.73 1016.92 1017.23 1017.42 1017.46 1017.47 1017.74 1017.74 1017.58 1017.75 1018.08 1018.44 1018.61 1018.92 1019.36 1019.90 1020.39 1020.85 1021.27 1021.76 1022.19 1022.55 1022.86 1023.11 1023.36 1023.59 1023.81
1012.31 1012.81 1013.20 1013.57 1013.88 1014.17 1014.60 1014.88 1015.06 1015.07 1015.12 1015.21 1015.39 1015.48 1015.57 1015.76 1016.01 1016.07 1016.32 1016.92 1017.17 1017.06 1017.20 1017.00 1017.12 1017.16 1017.39 1017.68 1017.87 1018.16 1018.61 1019.19 1019.75 1020.16 1020.63 1021.00 1021.48 1022.03 1022.44 1022.71 1022.92 1023.11 1023.28
1011.77 1012.36 1012.79 1013.31 1013.60 1013.91 1014.17 1014.37 1014.58 1014.65 1014.59 1014.67 1014.84 1014.78 1014.90 1014.93 1014.82 1015.25 1015.32 1015.79 1016.32 1016.83 1016.80 1016.53 1016.34 1016.21 1016.57 1016.76 1016.97 1017.37 1017.86 1018.52 1019.04 1019.47 1019.92 1020.41 1020.76 1021.23 1021.79 1022.16 1022.45 1022.70 1022.92
1011.23 1011.83 1012.22 1012.73 1012.99 1013.25 1013.57 1013.93 1014.13 1014.09 1014.19 1014.18 1014.24 1014.26 1014.27 1014.22 1014.18 1014.47 1014.76 1015.03 1015.52 1016.02 1016.29 1015.94 1015.81 1015.57 1015.72 1016.12 1016.21 1016.67 1017.07 1017.67 1018.15 1018.61 1019.07 1019.62 1020.02 1020.44 1020.94 1021.40 1021.77 1022.08 1022.37
1010.76 1011.27 1011.57 1012.02 1012.40 1012.70 1012.97 1013.27 1013.38 1013.51 1013.68 1013.61 1013.63 1013.68 1013.65 1013.56 1013.67 1013.85 1014.06 1014.46 1014.90 1015.33 1015.85 1015.82 1015.71 1015.41 1015.53 1015.95 1016.11 1016.26 1016.65 1017.13 1017.58 1017.99 1018.41 1018.90 1019.37 1019.71 1020.10 1020.52 1020.94 1021.32 1021.66
1010.17 1010.55 1011.03 1011.41 1011.75 1012.01 1012.24 1012.56 1012.80 1012.80 1012.95 1013.07 1013.03 1013.12 1012.95 1012.93 1012.98 1012.96 1013.26 1013.80 1014.40 1014.80 1014.97 1015.32 1015.88 1015.62 1015.43 1015.50 1015.56 1015.76 1015.83 1016.23 1016.74 1017.14 1017.77 1018.20 1018.67 1019.04 1019.42 1019.85 1020.25 1020.59 1020.95
1009.80 1010.14 1010.50 1010.88 1011.17 1011.42 1011.68 1011.93 1012.14 1012.30 1012.35 1012.50 1012.61 1012.61 1012.44 1012.31 1012.21 1012.23 1012.66 1013.35 1014.00 1014.45 1014.64 1014.51 1015.69 1015.69 1015.71 1015.22 1015.52 1015.30 1015.42 1015.75 1016.10 1016.38 1016.84 1017.22 1017.63 1018.09 1018.61 1019.17 1019.66 1020.05 1020.40
1009.46 1009.85 1010.18 1010.42 1010.70 1010.90 1011.15 1011.37 1011.57 1011.76 1011.84 1012.00 1012.05 1012.05 1011.90 1011.77 1011.79 1011.89 1012.49 1013.25 1013.61 1014.12 1014.50 1014.78 1015.57 1015.38 1015.24 1015.27 1015.35 1015.26 1015.62 1015.58 1015.93 1015.86 1016.12 1016.45 1017.07 1017.46 1017.94 1018.47 1018.97 1019.25 1019.43
1008.88 1009.18 1009.52 1009.84 1010.05 1010.23 1010.35 1010.60 1010.94 1011.27 1011.45 1011.52 1011.61 1011.72 1011.72 1011.84 1011.80 1011.90 1012.28 1012.92 1013.27 1013.52 1013.66 1014.16 1014.61 1014.66 1014.81 1014.73 1015.00 1014.88 1015.33 1015.48 1015.56 1015.58 1015.89 1016.48 1016.77 1016.98 1017.29 1017.80 1018.21 1018.55 1018.69
1008.43 1008.75 1009.04 1009.37 1009.60 1009.64 1009.69 1009.87 1010.21 1010.70 1011.01 1011.32 1011.58 1011.74 1011.78 1011.86 1011.95 1012.20 1012.48 1012.77 1012.77 1012.96 1013.36 1013.52 1013.96 1014.43 1014.58 1014.37 1014.52 1014.89 1015.06 1015.47 1015.60 1014.93 1015.61 1016.23 1016.31 1016.61 1016.66 1016.92 1017.06 1017.52 1018.08
1007.98 1008.29 1008.51 1008.68 1009.01 1009.28 1009.51 1009.65 1010.02 1010.49 1010.83 1011.27 1011.42 1011.69 1011.92 1012.09 1012.30 1012.28 1012.41 1012.75 1013.02 1013.05 1013.09 1013.30 1013.73 1014.01 1014.21 1014.21 1014.33 1014.47 1014.46 1014.81 1015.05 1014.79 1015.04 1015.71 1015.94 1016.25 1016.32 1016.39 1016.59 1017.05 1017.47
1007.98 1008.26 1008.53 1008.58 1008.79 1008.86 1008.93 1009.23 1009.72 1010.21 1010.65 1010.98 1011.16 1011.56 1011.83 1012.18 1012.06 1012.43 1012.56 1012.66 1012.76 1012.78 1013.01 1013.23 1013.49 1013.40 1013.47 1013.72 1013.56 1013.67 1013.93 1014.35 1014.68 1014.52 1014.48 1015.22 1015.49 1016.07 1016.43 1016.59 1016.63 1016.64 1016.91
1007.84 1008.03 1008.03 1008.29 1008.70 1008.91 1008.74 1008.70 1009.03 1009.67 1010.16 1010.47 1010.64 1010.93 1011.40 1011.90 1012.18 1012.33 1012.55 1012.79 1012.69 1012.61 1012.62 1012.76 1012.77 1013.00 1013.06 1013.26 1013.27 1013.59 1013.65 1014.08 1014.51 1014.28 1014.29 1014.70 1015.20 1015.86 1016.34 1016.82 1016.93 1017.15 1017.16
1007.81 1008.20 1008.52 1008.28 1008.32 1008.61 1008.85 1009.10 1009.17 1009.16 1009.60 1009.93 1010.11 1010.38 1010.74 1011.04 1011.50 1012.17 1012.56 1012.77 1012.86 1012.66 1012.55 1012.69 1012.87 1013.04 1012.99 1013.08 1013.07 1013.10 1012.93 1013.33 1013.81 1014.10 1013.75 1014.20 1014.76 1015.39 1016.29 1016.47 1016.79 1017.08 1017.43
Wind_Speed
7 5 5 5 5 5 5 6 4 3 3 5 4 6 10 12 6 5 2 14 12 14 14 15 15 16 17 16 14 14 14 13 12 12 13 13 12 11 13 12 13 12 12
5 6 4 4 3 4 5 7 6 6 4 4 4 5 8 9 9 7 3 6 15 15 14 15 16 15 15 16 15 13 13 14 12 12 11 12 11 12 13 12 11 11 10
7 6 4 3 3 3 5 4 4 5 4 4 5 4 4 6 5 5 5 4 7 15 16 15 14 14 15 15 15 15 13 11 11 11 11 11 10 12 12 11 11 10 9
8 6 5 3 3 4 4 4 2 3 3 3 2 4 4 4 8 9 7 5 4 6 12 15 12 11 14 15 14 14 13 11 10 10 11 11 10 12 11 10 9 9 8
8 6 5 4 3 3 2 3 3 3 3 3 3 3 4 5 5 6 7 7 6 6 5 12 14 11 14 15 15 14 14 13 12 11 12 11 12 10 10 9 10 9 7
7 6 5 6 5 3 2 3 3 0 2 4 3 5 5 4 4 5 6 5 7 6 5 6 6 8 12 14 15 15 16 14 13 13 12 11 10 12 10 10 9 9 8
8 7 5 5 4 4 4 6 4 4 2 3 3 1 3 4 4 4 5 5 8 9 5 5 7 5 7 13 16 15 16 16 15 15 14 13 12 12 10 9 9 9 8
8 7 6 5 6 4 5 5 5 3 3 4 3 1 2 1 4 6 5 7 8 7 9 6 9 9 8 7 8 17 17 17 18 17 16 15 14 13 13 11 10 9 8
9 8 7 6 6 5 4 5 5 6 4 4 5 4 3 3 2 3 7 7 9 7 5 9 11 11 10 9 10 13 18 16 18 19 17 16 15 14 14 13 11 10 10
7 7 7 6 6 4 5 4 5 5 4 4 2 4 2 3 3 1 3 6 7 9 10 6 9 11 11 9 15 16 19 18 19 19 19 18 18 17 16 14 13 12 11
7 7 7 6 5 4 4 6 4 5 5 4 3 3 4 3 4 3 3 4 4 6 8 10 9 9 11 11 10 14 20 22 20 20 20 19 18 19 19 18 16 15 15
6 7 8 7 7 6 6 5 6 5 4 4 4 4 4 4 4 6 3 3 8 4 7 8 10 9 9 9 14 20 22 23 22 21 20 19 19 19 20 20 19 18 17
4 8 6 7 6 5 5 5 5 5 6 4 5 5 6 6 6 3 4 4 3 3 3 7 8 9 8 9 12 21 23 24 23 22 19 18 18 19 19 19 19 19 18
7 6 8 6 6 6 6 5 5 5 6 5 7 6 5 6 6 6 5 5 1 3 2 4 8 8 8 9 12 18 14 23 23 22 21 20 18 17 16 18 18 18 17
7 9 9 8 9 9 10 7 6 7 5 5 6 7 6 4 7 6 4 4 5 4 7 5 5 11 8 9 11 11 15 20 23 22 21 20 20 18 17 16 15 14 13
7 8 9 11 10 8 8 8 7 5 6 5 5 6 5 6 7 5 5 6 4 4 4 5 7 4 12 7 8 11 12 19 25 24 23 22 21 20 19 18 16 15 14
7 8 8 8 7 8 8 8 7 6 7 6 5 6 8 6 5 5 6 4 5 4 3 1 3 3 7 10 8 9 9 11 12 20 21 21 21 21 21 20 18 17 15
7 8 8 8 7 7 7 7 7 7 5 6 6 6 7 5 7 8 7 6 8 6 3 3 2 3 5 5 8 10 10 10 11 19 20 21 21 21 20 19 18 16 15
6 7 8 7 7 7 6 6 6 6 6 6 6 6 7 6 7 4 4 5 8 6 5 5 2 4 4 2 4 4 8 11 9 13 22 23 22 21 19 17 16 15 14
7 7 8 7 7 7 7 6 6 6 6 4 1 4 5 5 4 7 9 7 7 7 7 7 4 4 3 5 3 3 5 2 6 8 12 15 19 19 17 16 16 17 17
7 7 7 7 8 8 7 8 7 7 6 5 3 3 4 5 5 5 8 7 8 5 5 4 2 1 2 3 7 3 5 4 4 4 2 3 4 7 9 12 14 18 17
8 7 8 8 8 7 10 13 9 6 6 6 5 3 4 7 10 11 9 5 5 7 4 3 2 2 1 2 1 4 5 4 4 3 5 4 6 6 6 7 15 12 13
8 7 7 7 8 7 8 9 13 6 6 5 5 5 5 4 6 8 10 12 8 7 5 4 4 4 4 5 4 4 3 4 4 3 4 4 5 3 3 4 13 14 13
5 6 6 7 6 6 11 9 12 7 6 6 6 6 5 6 7 7 5 5 6 6 6 5 5 5 4 5 5 6 7 4 2 3 3 4 3 3 3 1 8 14 14
4 4 3 6 6 5 10 13 11 6 6 7 7 7 7 6 7 9 6 5 5 5 7 8 8 8 8 8 6 3 4 4 3 4 3 4 3 3 2 2 3 7 9
4 3 5 6 7 7 9 8 7 4 6 5 6 7 12 9 14 11 6 6 5 5 5 3 2 4 5 5 7 5 3 5 3 2 5 5 4 4 3 3 3 3 3
Wind_Direction
169 185 177 181 188 188 186 180 169 167 139 221 136 147 149 193 203 228 180 185 181 173 179 179 171 160 146 145 153 147 147 145 146 140 140 140 134 128 127 129 127 122 116
160 173 176 179 185 187 182 169 168 165 182 192 172 148 163 176 192 194 197 186 190 178 181 185 179 165 152 152 157 156 157 154 156 151 145 142 141 135 136 138 138 132 125
163 157 159 144 114 89 114 107 130 150 154 165 151 179 143 170 164 186 185 201 196 186 188 192 188 170 157 162 164 161 167 164 166 162 151 155 152 147 143 147 150 146 141
150 149 133 131 122 111 122 157 122 127 156 152 201 203 188 183 178 200 201 180 187 195 196 190 179 184 170 170 174 165 166 171 176 168 165 164 159 159 153 158 158 155 157
150 141 142 155 127 87 72 135 65 105 142 178 229 232 214 188 184 192 203 188 186 195 192 196 182 190 182 178 181 173 178 179 183 181 170 174 168 165 166 174 160 161 171
153 144 150 151 147 138 129 132 141 245 116 177 205 217 223 197 201 179 193 177 197 217 198 180 190 192 204 190 186 183 185 189 189 186 184 183 186 176 184 188 177 180 187
148 155 157 151 153 172 161 163 149 177 193 164 117 276 253 227 208 204 170 175 195 210 208 191 188 184 206 209 192 189 192 193 192 193 191 189 192 184 189 191 193 197 202
154 162 162 164 162 171 178 175 178 148 181 182 144 135 202 262 211 207 186 191 196 203 213 201 192 188 191 203 202 194 199 195 199 200 195 194 197 199 194 199 206 210 217
166 163 172 162 169 174 184 178 180 181 164 200 207 159 159 216 172 169 210 200 194 208 209 199 194 194 187 192 200 203 199 200 200 201 203 197 199 205 202 204 207 210 217
165 164 164 159 171 176 194 189 171 190 173 171 205 241 241 152 184 231 201 209 190 202 213 201 196 194 194 193 197 200 203 202 203 205 204 203 200 203 206 208 210 214 220
164 152 158 168 185 186 192 192 214 215 193 161 170 146 212 224 235 241 246 193 203 205 204 202 201 206 203 194 197 204 201 199 203 206 206 206 206 206 211 215 215 216 220
172 176 169 180 188 188 194 197 195 212 228 217 176 177 178 173 206 211 212 213 205 206 197 202 202 205 205 194 198 202 201 201 201 202 206 209 208 211 215 217 220 223 226
181 190 170 177 178 185 203 215 217 219 220 211 204 192 203 208 218 203 177 212 179 208 169 204 209 203 205 205 206 200 201 201 200 198 198 204 209 210 214 218 222 225 227
181 172 189 189 180 189 206 221 226 219 213 214 231 212 197 210 212 212 198 164 243 198 156 184 206 210 204 206 209 203 204 196 199 198 201 200 202 207 213 220 223 223 225
178 192 192 207 207 208 206 200 220 229 223 222 229 222 214 209 224 212 186 166 165 178 218 219 171 206 212 211 208 202 207 198 196 196 198 201 202 201 208 216 220 223 224
180 170 189 197 195 192 199 204 218 217 227 233 224 226 231 230 215 208 198 183 177 160 210 190 211 182 205 223 207 188 189 192 194 195 197 199 202 204 207 212 215 218 222
178 180 176 180 190 196 204 203 213 215 222 231 230 226 242 234 221 212 210 163 191 165 187 336 235 186 213 202 191 185 186 190 197 200 199 201 204 206 209 213 216 218 220
178 180 178 187 198 212 203 205 211 235 222 232 239 241 249 244 228 212 200 190 179 157 186 173 249 255 199 226 211 181 191 195 197 199 201 203 207 209 212 214 215 214 216
181 181 182 191 201 210 206 205 208 220 222 238 251 253 253 235 241 202 154 133 128 140 142 119 294 240 243 173 232 192 186 198 195 193 204 210 209 210 211 210 213 214 214
179 181 194 194 200 200 206 213 209 213 219 190 165 291 271 228 207 132 124 138 139 133 145 154 192 224 210 228 229 188 213 192 181 207 210 209 214 215 210 207 208 209 214
192 195 185 191 198 202 207 195 197 206 180 159 120 46 83 61 94 127 139 156 140 132 131 132 105 206 216 174 196 187 201 195 230 172 162 210 190 198 204 205 222 220 216
195 191 187 194 204 216 214 201 183 175 166 166 158 128 124 122 112 119 116 135 168 149 147 129 111 178 265 10 316 214 203 184 233 192 151 216 175 199 210 207 212 209 200
187 192 197 190 194 204 241 214 185 167 162 184 161 154 167 159 142 137 139 133 121 98 98 137 159 186 170 195 206 216 223 197 207 238 175 207 185 198 229 215 199 186 182
198 194 207 202 199 204 201 196 174 163 170 184 175 177 176 176 171 163 161 168 175 167 187 187 204 178 190 218 215 185 187 169 187 241 154 191 144 170 182 188 196 166 164
187 214 191 193 197 218 197 176 159 166 179 194 192 185 181 182 198 175 160 181 196 205 196 202 197 208 197 208 210 171 174 138 202 225 194 141 163 118 122 190 193 185 164
196 214 242 236 217 202 206 208 187 171 185 195 202 195 193 186 178 182 182 177 190 225 183 165 213 253 234 243 253 236 177 176 167 203 215 149 148 135 166 175 179 156 153